Vancouver, WA
on Friday, December 7, 2012

Friday
Previous Day Next Day
Daily Summary
 ActualAverageRecord
Temperature
Mean Temperature °F 41°F  
Max Temperature 50°F 48°F 64°F (1938)
Min Temperature 42°F 35°F 12°F (2013)
Degree Days
Heating Degree Days 19    
Month to date heating degree days 122  
Since 1 July heating degree days 944  
Cooling Degree Days 0    
Month to date cooling degree days 0  
Year to date cooling degree days 398  
Moisture
Dew Point 41°F   
Average Humidity 78    
Maximum Humidity 86    
Minimum Humidity 70    
Precipitation
Precipitation 0.03 in 0.20 in 1.38 in (1975)
Month to date precipitation 2.26 1.39  
Year to date precipitation 40.58 33.76  
Snow
Snow 0.00 in in in ()
Month to date snowfall  
Since 1 July snowfall 0.0  
Snow Depth 0.00 in   
Wind
Wind Speed 5 mph   
Max Wind Speed 13 mph   
Max Gust Speed 21 mph   
Visibility 10 miles   
Events Rain   

Key: T is trace of precipitation, MM is missing value
Source: NWS Daily Summary
Time(PST)TemperatureDew PointHumidity Pressure Visibility Wind DirectionWind SpeedGust SpeedPrecipitationEvents Conditions
12:48 AM 46.4°F 42.8°F 87% 30.20 in 10.0 miles Variable 6.9 mph - N/A   Overcast
12:53 AM 46.0°F 42.1°F 86% 30.20 in 10.0 miles South 5.8 mph - N/A   Overcast
1:44 AM 46.4°F 41.0°F 81% 30.19 in 10.0 miles SSW 5.8 mph - N/A   Overcast
1:53 AM 46.0°F 41.0°F 83% 30.19 in 10.0 miles Variable 4.6 mph - N/A   Overcast
2:13 AM 46.4°F 41.0°F 81% 30.19 in 10.0 miles Variable 3.5 mph - N/A   Overcast
2:50 AM 46.4°F 41.0°F 81% 30.19 in 10.0 miles Variable 4.6 mph - N/A   Overcast
2:53 AM 46.0°F 41.0°F 83% 30.19 in 10.0 miles South 3.5 mph - N/A   Overcast
3:53 AM 46.0°F 41.0°F 83% 30.17 in 10.0 miles Variable 3.5 mph - N/A   Overcast
4:20 AM 46.4°F 41.0°F 81% 30.17 in 10.0 miles Variable 3.5 mph - N/A   Overcast
4:53 AM 46.0°F 41.0°F 83% 30.16 in 10.0 miles East 6.9 mph - N/A   Overcast
5:39 AM 46.4°F 41.0°F 81% 30.15 in 10.0 miles South 8.1 mph - N/A   Mostly Cloudy
5:53 AM 46.0°F 41.0°F 83% 30.14 in 10.0 miles South 5.8 mph - N/A   Mostly Cloudy
6:03 AM 46.4°F 41.0°F 81% 30.14 in 10.0 miles South 8.1 mph - N/A   Mostly Cloudy
6:53 AM 46.0°F 41.0°F 83% 30.14 in 10.0 miles South 8.1 mph - N/A   Overcast
7:25 AM 46.4°F 41.0°F 81% 30.14 in 10.0 miles Variable 4.6 mph - N/A   Overcast
7:53 AM 46.0°F 41.0°F 83% 30.15 in 10.0 miles Variable 5.8 mph - N/A   Overcast
8:51 AM 46.4°F 41.0°F 81% 30.14 in 10.0 miles South 4.6 mph - 0.00 in   Overcast
8:53 AM 46.9°F 41.0°F 80% 30.14 in 10.0 miles South 3.5 mph - 0.00 in   Overcast
9:53 AM 46.9°F 41.0°F 80% 30.13 in 10.0 miles SSW 8.1 mph - N/A   Overcast
10:18 AM 46.4°F 41.0°F 81% 30.13 in 10.0 miles SSW 9.2 mph - N/A   Overcast
10:53 AM 48.0°F 41.0°F 77% 30.13 in 10.0 miles SSW 9.2 mph 16.1 mph N/A   Overcast
11:01 AM 48.2°F 42.8°F 82% 30.13 in 10.0 miles SSW 6.9 mph - N/A   Overcast
11:53 AM 48.0°F 42.1°F 80% 30.12 in 10.0 miles SSW 9.2 mph - 0.00 in   Overcast
12:53 PM 48.0°F 43.0°F 83% 30.11 in 10.0 miles SSW 5.8 mph - 0.01 in Rain Light Rain
1:53 PM 48.9°F 44.1°F 83% 30.11 in 10.0 miles West 5.8 mph - 0.00 in Rain Light Rain
2:18 PM 48.2°F 44.6°F 87% 30.10 in 10.0 miles SW 4.6 mph - 0.00 in   Mostly Cloudy
2:53 PM 48.9°F 44.1°F 83% 30.12 in 5.0 miles West 5.8 mph - 0.02 in Rain Light Rain
3:00 PM 48.2°F 44.6°F 87% 30.12 in 10.0 miles West 6.9 mph - 0.00 in Rain Light Rain
3:11 PM 48.2°F 44.6°F 87% 30.12 in 10.0 miles WSW 3.5 mph - 0.00 in   Overcast
3:53 PM 48.0°F 41.0°F 77% 30.14 in 10.0 miles WNW 6.9 mph - 0.00 in   Overcast
4:53 PM 46.9°F 39.0°F 74% 30.15 in 10.0 miles NNW 5.8 mph - 0.00 in   Overcast
5:53 PM 45.0°F 37.9°F 76% 30.18 in 10.0 miles NW 4.6 mph - N/A   Mostly Cloudy
6:53 PM 45.0°F 37.0°F 74% 30.19 in 10.0 miles NW 5.8 mph - N/A   Clear
7:53 PM 43.0°F 36.0°F 76% 30.21 in 10.0 miles West 3.5 mph - N/A   Partly Cloudy
8:53 PM 43.0°F 36.0°F 76% 30.22 in 10.0 miles West 3.5 mph - N/A   Overcast
9:53 PM 43.0°F 36.0°F 76% 30.23 in 10.0 miles West 4.6 mph - N/A   Overcast
10:53 PM 44.1°F 35.1°F 71% 30.23 in 10.0 miles Calm Calm - N/A   Overcast
11:53 PM 43.0°F 35.1°F 74% 30.23 in 10.0 miles Calm Calm - N/A   Scattered Clouds
Moon Phase
Dec. 07 Dec. 13 Dec. 20 Dec. 28 Jan. 04
Sunrise:07:37 AM (PST) Moon Rise:12:46 AM (PST)12/7
Sunset:04:26 PM (PST) Moon Set:12:41 PM (PST)12/7

Copyright © 2014 The Weather Underground, Inc.